Location: Shepherdstown, WV
(39.4326°N, 77.8042°W)
Time: 04:28:12
(UTC-04:00)

Vanguard 1 - Pass Details

Date: 06 October 2021
Orbit: 653 x 3829 km, 34.2° (Epoch: 18 October)

Event Time Altitude Azimuth Distance (km) Brightness Sun altitude
Rises 22:50:51 0° 281° (WNW) 6,153 14.7 -45.5°
Reaches altitude 10° 22:54:31 10° 276° (W) 5,497 14.3 -46.0°
Enters shadow 23:11:14 49° 211° (SSW) 4,258 12.9 -48.3°
